Location: *
(46.4000°N, 12.6667°E)
Time: 23:33:26
(UTC+00:00)

ISS - Pass Details

Date: 11 March 2021
Orbit: 418 x 422 km, 51.6° (Epoch: 12 April)

Event Time Altitude Azimuth Distance (km) Brightness Sun altitude
Exits shadow 04:00:53 40° 245° (WSW) 628 -3.4 -16.1°
Maximum altitude 04:01:26 45° 215° (SW) 584 -3.4 -16.0°
Drops below altitude 10° 04:04:38 10° 142° (SE) 1,492 -0.6 -15.5°
Sets 04:06:46 0° 135° (SE) 2,352 0.5 -15.1°
